Temperature
23 22 22 22 21 21 21 20 20 20 19 19 19 19 19 18 18 18 18 18 18 18 18 18 18 18 18 18 18 18 17 17 17 17 17 17 17 17 17 17 17 17 17
23 22 22 22 21 21 21 21 20 20 19 19 19 19 19 18 18 18 18 18 18 18 18 18 18 18 18 17 18 17 17 17 17 17 17 17 17 17 17 17 17 17 17
23 23 22 22 22 21 21 21 20 20 19 19 19 19 18 18 18 18 18 18 18 18 18 18 18 17 17 17 17 17 17 17 17 17 17 17 17 17 17 17 17 17 17
23 23 23 22 22 22 22 21 21 20 20 19 19 19 19 19 19 18 18 18 18 18 18 18 17 17 17 17 17 17 17 17 17 17 17 17 17 16 16 16 16 16 16
24 24 23 23 23 22 22 21 21 20 20 19 19 19 19 19 18 18 18 18 18 18 18 18 17 17 17 17 17 17 17 17 17 17 17 17 16 16 16 16 15 15 15
24 24 24 23 23 22 22 22 21 21 20 20 19 19 19 19 19 18 18 18 18 18 18 18 17 17 17 17 17 17 17 17 17 17 17 17 16 16 16 16 15 15 15
24 24 24 23 23 23 22 22 21 21 20 20 20 19 19 19 19 18 18 18 18 18 18 18 18 18 17 17 17 17 17 17 17 17 17 16 16 16 16 16 15 15 14
24 24 24 24 24 23 23 22 22 21 21 20 20 19 19 19 19 18 18 18 18 18 18 17 17 17 17 17 17 17 17 17 17 16 16 16 16 16 16 16 15 14 14
24 25 24 24 24 23 23 23 22 22 21 21 20 20 19 19 19 18 18 18 18 18 17 17 17 17 17 17 17 17 17 16 16 16 16 16 16 16 16 15 15 15 14
24 24 24 24 24 24 23 23 22 22 21 21 20 20 19 19 19 18 18 18 18 17 17 17 17 17 17 16 16 16 16 16 16 16 16 16 15 15 15 15 15 15 15
24 24 24 24 24 23 23 23 22 22 21 21 20 20 20 19 19 18 18 18 17 17 17 17 17 17 16 16 16 16 16 16 16 16 16 15 15 15 15 15 15 14 14
24 24 24 24 23 23 23 22 22 22 21 21 20 20 19 19 19 18 18 18 17 17 17 16 16 16 16 16 16 16 16 15 15 15 15 15 15 15 15 14 14 14 14
23 23 23 24 23 23 23 22 22 22 21 21 20 20 19 19 19 18 18 17 17 17 16 16 16 16 16 16 15 15 15 15 15 15 15 15 15 15 14 14 14 14 13
23 23 23 23 23 23 22 22 22 21 21 21 20 20 19 19 19 18 18 17 17 17 16 16 16 16 15 15 15 15 15 15 15 15 14 14 14 14 14 14 14 13 13
23 23 23 23 23 23 22 22 22 21 21 21 20 20 19 19 18 18 18 17 17 16 16 16 16 15 15 15 15 15 15 15 14 14 14 14 14 14 14 13 13 13 13
23 23 23 23 23 23 22 22 22 21 21 20 20 19 19 19 18 18 17 17 17 16 16 16 16 15 15 15 15 14 14 14 14 14 14 14 13 13 13 13 13 13 13
24 23 23 23 23 23 23 22 22 21 21 20 20 19 19 18 18 18 17 17 16 16 16 15 15 15 15 14 14 14 14 14 14 14 13 13 13 13 13 13 13 12 12
23 23 23 23 23 22 22 22 21 21 20 20 19 19 19 18 18 17 17 17 16 16 16 15 15 15 15 14 14 14 14 14 14 13 13 13 13 13 12 12 12 12 12
24 23 23 23 22 22 22 22 21 21 20 20 19 19 18 18 18 17 17 17 16 16 15 15 15 14 14 14 14 14 14 13 13 13 13 12 12 12 12 12 12 12 11
23 23 22 22 22 22 21 21 21 20 20 19 19 19 18 18 18 17 17 16 16 15 15 15 14 14 14 14 13 13 13 13 13 13 12 12 12 12 12 12 12 11 11
22 22 22 22 22 21 21 20 20 20 20 19 19 18 18 17 17 17 16 16 16 15 15 15 14 14 14 13 13 13 13 13 12 12 12 12 12 12 11 11 11 11 11
21 22 22 21 21 21 20 20 20 20 19 19 18 18 17 17 17 16 16 16 15 15 15 14 14 14 14 13 13 13 13 12 12 12 12 11 11 11 11 11 11 11 10
21 21 21 21 21 20 20 20 20 19 19 18 18 17 17 16 16 16 16 15 15 15 14 14 14 14 13 13 13 13 12 12 12 12 11 11 11 11 11 11 11 10 10
20 20 21 20 20 20 19 19 19 19 18 18 17 17 16 16 15 15 15 15 15 14 14 14 14 13 13 13 13 12 12 12 12 11 11 11 11 11 11 11 10 10 10
20 20 20 20 20 19 19 19 18 18 18 17 17 16 16 15 15 15 14 14 14 14 14 14 13 13 13 13 12 12 12 12 12 11 11 11 11 11 10 10 10 10 10
19 19 19 19 19 18 18 18 18 17 17 17 17 16 15 15 15 14 14 14 14 13 13 13 13 13 13 12 12 12 12 11 11 11 11 11 10 10 10 10 10 9 9
Wind_Speed
7 6 7 7 6 6 6 6 6 4 4 2 1 1 0 0 1 1 1 1 1 1 1 0 1 0 1 1 1 1 1 1 1 1 1 1 1 0 1 1 1 1 2
6 7 7 7 7 7 7 6 6 5 4 3 2 2 1 0 0 1 2 2 2 1 0 1 0 0 0 1 1 1 1 1 2 2 1 1 2 2 1 0 1 1 1
11 10 9 9 8 8 9 8 6 6 5 4 3 2 2 2 2 2 2 2 2 2 1 0 0 1 1 1 2 2 2 2 1 2 2 2 2 1 2 2 1 1 1
10 10 10 9 10 10 8 7 6 5 5 5 4 4 3 2 1 0 1 2 3 3 2 1 0 0 1 1 2 1 2 2 2 1 1 2 2 2 0 2 2 2 2
11 12 12 12 10 9 8 7 6 5 5 5 6 5 3 2 1 1 1 1 2 3 3 2 1 1 1 1 1 1 1 2 2 2 1 1 1 2 2 1 1 2 2
11 10 9 8 8 7 7 7 7 6 5 6 6 6 5 4 2 1 0 1 2 2 3 2 2 1 1 1 1 1 1 1 2 2 2 2 2 2 2 2 1 1 2
10 9 10 10 9 9 9 8 8 7 6 6 6 5 5 4 4 2 1 0 1 1 2 2 1 1 1 1 1 1 1 1 1 1 1 2 2 2 2 4 2 1 1
10 10 11 10 10 10 9 9 9 8 7 6 5 4 4 3 2 2 2 1 1 1 1 2 2 2 2 2 1 1 1 1 0 0 0 0 0 1 3 3 3 2 1
10 10 10 10 10 10 10 10 10 8 7 7 6 4 4 4 3 2 2 1 1 0 1 2 2 3 3 3 2 2 2 2 1 1 1 1 1 1 2 2 3 3 2
9 9 9 9 9 9 8 8 9 9 7 7 6 5 4 4 3 3 2 2 1 1 2 2 2 3 3 4 3 3 3 3 3 2 3 2 2 2 1 1 1 2 3
9 9 9 9 8 8 8 9 8 7 7 6 6 5 4 4 4 3 2 2 2 2 2 2 3 3 4 3 4 3 4 4 4 4 4 3 3 3 2 2 2 3 3
8 8 8 8 8 9 9 9 8 8 7 7 6 6 5 5 4 3 3 3 3 3 3 3 4 4 4 4 4 4 4 4 4 4 4 4 3 4 3 3 3 3 3
7 7 8 8 9 9 9 8 8 8 7 7 7 6 5 5 5 4 3 3 3 3 3 4 4 3 4 4 4 4 5 4 4 4 4 3 4 4 3 4 4 4 4
8 8 8 8 8 8 8 8 8 8 8 8 8 7 6 6 5 4 4 3 3 3 3 3 3 3 4 4 4 4 5 5 4 4 4 4 4 3 4 4 5 5 6
8 9 9 8 8 8 8 8 8 8 8 9 8 7 6 6 5 5 4 3 4 4 4 4 4 4 4 3 4 4 5 5 5 5 4 4 5 6 4 4 4 5 5
9 9 9 9 9 9 9 9 8 8 9 9 8 7 6 6 5 5 4 4 4 4 4 4 4 4 3 5 6 5 4 4 5 4 4 4 6 7 8 8 7 6 6
9 9 9 9 9 9 9 9 9 8 9 9 8 7 7 6 5 5 5 5 4 4 4 4 4 3 3 5 7 8 5 5 5 4 4 4 5 6 5 7 9 8 7
8 8 8 7 6 7 8 9 9 9 9 8 8 7 7 6 6 6 5 4 4 4 3 3 3 3 4 6 7 8 6 6 5 5 4 4 4 4 4 6 6 6 5
7 7 7 7 7 8 9 10 10 9 9 8 8 8 8 7 6 6 5 4 4 4 3 3 3 4 3 5 6 6 5 5 5 5 4 4 4 4 5 6 6 5 4
6 6 7 8 8 8 9 10 10 9 9 8 8 7 7 8 7 6 5 4 4 4 4 3 3 3 2 3 5 6 4 4 3 3 4 5 4 4 5 5 5 5 3
7 8 9 8 7 9 10 9 8 8 8 7 7 7 7 7 7 6 5 5 5 5 4 3 2 2 2 2 4 5 4 3 3 2 2 3 5 6 5 4 3 4 4
6 8 8 7 6 9 10 9 8 7 8 8 8 7 6 6 6 7 6 6 6 5 4 3 2 1 1 1 2 4 4 5 4 2 1 2 4 6 5 4 5 6 6
5 6 8 7 6 7 9 10 7 8 9 9 8 7 6 5 6 6 6 5 5 4 3 3 2 0 1 1 2 3 5 5 3 2 3 3 5 5 5 5 6 5 4
4 5 7 7 6 6 6 7 7 8 9 9 7 7 6 5 5 4 5 5 5 5 4 4 3 2 1 1 1 2 3 4 4 3 3 5 6 5 5 4 4 3 3
4 4 6 6 6 6 6 7 8 9 8 8 7 6 6 6 5 4 3 5 5 6 6 5 5 4 4 4 5 4 3 3 4 4 3 3 2 3 2 2 2 2 2
5 5 5 6 5 6 6 6 7 9 9 7 7 6 6 5 5 5 2 2 2 5 6 6 5 4 4 4 5 5 5 6 7 5 3 2 2 2 2 1 1 0 1
Wind_Direction
205 187 183 179 172 174 178 182 176 173 149 138 142 144 164 20 9 351 356 18 34 45 97 30 317 228 206 228 202 178 179 196 153 109 8 4 21 278 241 225 200 210 213
201 190 186 184 183 185 188 188 182 177 174 165 157 151 135 134 295 355 13 16 13 350 123 158 278 242 239 258 206 180 181 206 173 160 151 339 358 12 341 200 191 220 194
202 197 192 196 192 192 195 194 189 184 181 164 124 98 76 51 31 8 358 353 351 345 342 135 236 247 223 250 246 204 198 218 220 191 172 173 229 323 16 34 68 88 136
202 198 196 194 200 202 195 188 184 182 176 164 156 158 157 171 205 211 311 346 6 359 355 13 155 244 240 266 268 224 216 199 216 222 221 205 175 186 325 23 42 54 48
200 198 198 197 200 192 185 182 174 177 175 169 166 160 160 166 148 112 3 353 358 0 0 13 24 354 312 296 295 278 221 207 202 203 202 192 186 193 198 229 33 46 39
200 197 195 185 188 181 175 171 169 177 173 167 163 165 168 162 145 129 32 352 351 356 2 8 1 343 331 318 302 293 266 224 211 209 206 191 185 189 186 199 185 77 37
192 186 183 183 184 180 177 169 167 173 169 164 167 172 173 167 174 181 174 122 353 346 343 356 347 335 327 337 347 355 347 305 233 222 220 214 215 188 165 160 172 153 53
184 186 189 188 186 182 174 168 170 173 169 168 172 169 166 166 172 174 162 163 203 266 341 15 17 8 7 10 23 23 2 29 22 309 203 137 194 167 165 164 159 152 98
183 185 183 182 180 176 175 173 170 169 171 173 166 161 162 162 165 159 148 147 175 132 38 41 33 24 29 31 47 46 29 42 39 34 58 68 47 110 141 157 170 169 171
181 178 176 178 176 172 168 162 165 169 168 169 171 168 162 162 159 142 140 136 116 81 66 56 47 42 39 38 49 49 41 56 43 52 68 62 54 73 96 147 152 158 159
180 178 173 171 164 158 159 160 161 159 159 162 156 151 149 149 143 138 135 120 89 73 69 66 65 61 51 47 57 51 52 62 52 50 65 63 65 73 65 85 100 105 118
172 168 163 157 157 161 162 162 162 162 162 156 147 148 142 133 128 123 111 100 87 72 74 73 72 68 60 58 64 58 55 65 60 52 61 59 72 71 69 83 94 101 106
157 152 151 159 162 162 161 160 160 160 153 146 143 141 141 136 131 122 109 100 94 77 72 76 76 71 67 67 67 69 66 67 65 62 67 66 80 77 76 84 92 98 104
158 160 163 164 161 158 157 155 153 150 149 146 147 149 151 147 139 127 114 107 101 90 79 77 79 83 79 73 73 74 70 64 60 57 61 65 78 91 94 94 96 103 106
166 169 169 165 158 153 153 151 149 149 149 147 151 155 150 141 133 127 119 107 97 93 89 82 70 68 77 76 80 79 75 65 58 52 51 59 72 77 92 105 109 114 115
179 176 169 163 163 162 161 156 154 154 149 150 152 147 143 139 137 134 124 111 99 93 87 81 77 68 68 83 88 91 79 68 62 55 45 53 60 72 79 90 98 110 126
180 176 175 174 170 168 164 162 157 149 148 149 148 147 147 145 146 142 129 124 117 105 95 87 84 76 70 89 93 89 87 74 64 59 52 55 56 67 84 82 78 77 85
178 176 170 167 160 154 149 146 145 149 150 149 150 151 150 150 147 139 137 133 123 116 107 97 91 87 82 93 97 96 87 77 62 55 59 66 54 65 90 94 83 71 63
170 168 161 151 146 150 149 144 146 150 150 154 157 158 155 153 150 147 146 138 131 121 112 107 99 96 85 95 107 106 94 80 63 52 54 64 65 65 93 101 96 79 60
143 144 139 133 138 143 142 145 152 155 161 163 159 155 152 152 155 154 145 132 131 131 124 104 93 103 98 104 116 119 111 95 77 58 49 55 71 77 96 111 112 100 77
144 140 138 141 147 144 143 149 157 168 165 152 147 147 150 152 152 145 137 134 132 125 119 108 86 81 84 103 121 130 131 134 116 87 58 45 64 79 86 100 113 129 121
133 135 136 138 139 145 148 153 169 168 149 145 146 149 151 152 148 143 139 138 137 131 125 113 87 55 54 91 134 140 142 141 131 129 104 70 79 84 88 97 104 108 105
135 137 138 136 141 152 155 161 168 153 145 144 149 150 148 146 148 150 150 146 147 148 152 150 152 139 45 63 134 136 134 137 132 136 126 100 91 87 82 91 105 109 109
134 137 139 145 155 160 159 158 154 150 147 150 153 152 150 149 147 149 158 163 167 168 170 177 183 190 211 219 150 138 134 126 121 119 98 86 82 81 79 78 80 94 112
143 147 156 162 169 160 157 154 154 150 152 155 155 155 156 155 154 154 163 175 187 187 182 192 190 190 212 226 193 168 168 163 152 130 102 88 87 83 72 67 69 80 95
143 148 158 160 161 159 155 158 158 156 155 159 162 164 163 161 161 159 133 74 163 181 185 187 188 208 207 181 173 172 163 154 146 128 129 135 142 153 162 157 128 103 137
Height
1533 1536 1538 1540 1542 1543 1545 1546 1547 1549 1550 1550 1551 1552 1552 1552 1552 1552 1552 1552 1552 1552 1552 1552 1552 1552 1552 1552 1552 1552 1552 1552 1552 1552 1552 1551 1551 1551 1552 1552 1553 1553 1553
1532 1534 1537 1539 1540 1542 1544 1545 1546 1548 1549 1550 1551 1552 1552 1552 1552 1552 1552 1552 1552 1552 1552 1551 1551 1551 1551 1550 1550 1550 1550 1550 1550 1550 1550 1550 1551 1550 1550 1550 1551 1551 1551
1528 1531 1534 1537 1539 1540 1542 1544 1546 1547 1549 1550 1550 1551 1551 1551 1552 1552 1552 1552 1551 1551 1551 1551 1550 1550 1550 1549 1549 1549 1548 1548 1548 1549 1549 1549 1548 1549 1549 1549 1549 1549 1549
1525 1528 1531 1534 1536 1538 1541 1543 1545 1546 1548 1549 1550 1550 1551 1551 1552 1552 1551 1551 1551 1551 1550 1550 1550 1549 1549 1548 1548 1547 1547 1546 1546 1546 1547 1547 1547 1548 1547 1548 1548 1548 1547
1521 1525 1528 1531 1534 1537 1539 1541 1543 1545 1547 1548 1549 1550 1550 1551 1551 1551 1551 1551 1551 1550 1550 1549 1549 1548 1548 1547 1546 1546 1545 1544 1544 1544 1544 1544 1545 1545 1545 1546 1546 1546 1546
1518 1522 1525 1529 1532 1535 1537 1539 1542 1544 1545 1547 1548 1549 1550 1550 1550 1551 1551 1551 1550 1550 1549 1549 1548 1547 1546 1546 1545 1544 1543 1543 1542 1542 1542 1542 1542 1542 1543 1543 1544 1544 1545
1514 1518 1522 1525 1529 1532 1535 1537 1540 1542 1544 1545 1547 1548 1549 1549 1550 1550 1550 1550 1550 1549 1549 1548 1547 1546 1545 1544 1544 1543 1542 1541 1540 1540 1540 1540 1540 1540 1541 1541 1541 1542 1543
1511 1515 1519 1522 1526 1529 1532 1535 1538 1540 1542 1544 1545 1547 1548 1548 1549 1549 1549 1549 1549 1548 1548 1547 1546 1545 1544 1543 1542 1541 1540 1539 1538 1538 1538 1538 1538 1538 1539 1539 1540 1540 1541
1508 1512 1516 1520 1523 1526 1530 1533 1536 1538 1541 1543 1544 1545 1547 1547 1548 1548 1548 1548 1548 1547 1547 1546 1545 1544 1543 1542 1541 1540 1539 1538 1537 1537 1537 1536 1536 1537 1537 1537 1538 1539 1539
1505 1509 1513 1517 1521 1524 1528 1531 1534 1537 1539 1542 1543 1544 1546 1546 1547 1547 1547 1547 1547 1546 1546 1545 1544 1543 1542 1542 1541 1539 1538 1538 1537 1536 1536 1535 1535 1535 1535 1536 1536 1537 1538
1503 1507 1510 1515 1519 1523 1526 1529 1532 1535 1538 1540 1542 1544 1545 1545 1546 1546 1546 1546 1546 1546 1545 1544 1543 1542 1542 1541 1540 1539 1538 1537 1536 1536 1535 1535 1535 1535 1535 1535 1535 1536 1537
1501 1505 1509 1513 1517 1520 1524 1527 1531 1533 1536 1539 1541 1542 1544 1544 1545 1545 1545 1545 1545 1545 1544 1544 1543 1542 1541 1540 1540 1539 1538 1537 1536 1535 1535 1535 1534 1534 1534 1534 1535 1535 1536
1500 1504 1507 1511 1514 1518 1522 1525 1529 1532 1535 1537 1540 1541 1543 1543 1544 1544 1545 1545 1544 1544 1544 1543 1542 1542 1541 1540 1539 1539 1538 1537 1536 1536 1535 1535 1535 1534 1534 1534 1535 1535 1536
1499 1502 1506 1509 1513 1517 1520 1524 1527 1530 1533 1536 1538 1540 1541 1542 1543 1543 1544 1544 1544 1544 1543 1543 1542 1542 1541 1541 1540 1539 1538 1538 1537 1536 1536 1535 1535 1534 1534 1535 1535 1536 1536
1498 1501 1504 1507 1511 1515 1518 1522 1525 1528 1531 1534 1536 1538 1540 1541 1542 1542 1543 1543 1543 1543 1543 1543 1542 1542 1541 1541 1540 1540 1539 1538 1537 1537 1536 1536 1536 1535 1535 1535 1536 1536 1537
1496 1499 1502 1506 1509 1513 1516 1520 1524 1527 1530 1532 1535 1537 1538 1540 1541 1542 1542 1543 1543 1543 1543 1543 1542 1542 1542 1541 1541 1540 1539 1538 1537 1537 1537 1536 1536 1536 1536 1536 1537 1537 1538
1494 1497 1500 1504 1507 1511 1514 1518 1522 1525 1528 1531 1533 1535 1537 1538 1539 1540 1541 1542 1542 1542 1543 1543 1542 1542 1542 1542 1541 1540 1540 1539 1538 1537 1537 1537 1537 1537 1537 1537 1538 1538 1539
1492 1496 1499 1503 1506 1510 1513 1517 1521 1524 1527 1529 1531 1533 1535 1537 1538 1539 1540 1541 1541 1542 1542 1542 1542 1542 1542 1542 1541 1541 1540 1539 1539 1538 1538 1538 1538 1538 1538 1538 1538 1539 1539
1492 1495 1498 1501 1505 1509 1512 1515 1519 1522 1525 1527 1529 1531 1533 1535 1536 1537 1539 1539 1540 1541 1541 1542 1542 1542 1542 1542 1542 1541 1541 1540 1540 1539 1539 1539 1539 1539 1539 1539 1539 1539 1540
1491 1493 1496 1500 1503 1507 1511 1514 1517 1520 1523 1525 1528 1530 1531 1533 1534 1536 1537 1538 1539 1540 1540 1541 1541 1542 1542 1542 1542 1542 1541 1541 1541 1540 1540 1540 1540 1540 1540 1540 1540 1540 1541
1489 1492 1495 1499 1502 1505 1509 1512 1515 1518 1521 1524 1526 1528 1530 1531 1533 1534 1535 1537 1538 1538 1539 1540 1540 1541 1542 1542 1542 1542 1541 1541 1541 1541 1541 1541 1541 1540 1540 1541 1541 1541 1542
1488 1491 1494 1497 1501 1504 1507 1510 1513 1517 1519 1522 1524 1526 1528 1529 1531 1532 1533 1535 1536 1537 1538 1538 1539 1540 1541 1541 1542 1542 1541 1541 1541 1541 1541 1541 1541 1541 1541 1541 1541 1542 1542
1487 1491 1494 1497 1500 1503 1506 1508 1511 1515 1517 1519 1521 1524 1526 1527 1529 1530 1531 1532 1534 1535 1536 1537 1538 1539 1540 1540 1540 1541 1541 1541 1541 1541 1541 1541 1541 1541 1541 1542 1542 1542 1542
1486 1489 1493 1496 1499 1501 1504 1506 1510 1513 1515 1517 1519 1521 1523 1525 1526 1528 1529 1530 1532 1533 1534 1535 1536 1537 1538 1538 1539 1539 1539 1540 1540 1540 1540 1541 1541 1541 1541 1541 1541 1541 1542
1486 1489 1491 1494 1497 1499 1502 1505 1508 1511 1513 1515 1517 1519 1521 1523 1524 1525 1527 1528 1530 1531 1533 1534 1535 1535 1535 1537 1537 1538 1538 1538 1539 1539 1539 1540 1540 1540 1541 1541 1541 1541 1541
1485 1487 1490 1492 1494 1497 1500 1503 1505 1508 1510 1512 1514 1516 1518 1520 1521 1523 1524 1526 1528 1529 1530 1531 1532 1533 1534 1535 1535 1536 1536 1537 1537 1538 1538 1538 1539 1539 1540 1540 1540 1540 1540